Location: Neuvy Saint Sepulchre
(46.5953°N, 1.8122°E)
Time: 09:40:22
(UTC+02:00)

ISS - Pass Details

Date: 18 July 2021
Orbit: 419 x 421 km, 51.6° (Epoch: 04 August)

Event Time Altitude Azimuth Distance (km) Brightness Sun altitude
Rises 00:32:28 0° 280° (W) 2,370 0.5 -19.6°
Reaches altitude 10° 00:34:42 10° 290° (WNW) 1,505 -0.4 -19.7°
Maximum altitude 00:37:48 33° 357° (N) 729 -2.0 -19.9°
Drops below altitude 10° 00:40:55 10° 64° (ENE) 1,505 -0.9 -20.1°
Enters shadow 00:43:03 - 74° (ENE) 2,332 0.0 -20.2°
